Weather Roundup
Issued by NWS Corpus Christi, TX

Home | Current Version | Previous Version | Text Only | Print | Product List | Glossary On
Versions: 1 2 3 4 5 6 7 8 9 10 11 12 13 14 15 16 17 18 19 20 21 22 23 24 25 26 27 28 29 30 31 32 33 34 35 36 37 38 39 40 41 42 43 44 45 46 47 48 49 50
000
ASUS44 KCRP 251310
HRRCRP

SOUTH TEXAS REGIONAL WEATHER ROUNDUP
NATIONAL WEATHER SERVICE CORPUS CHRISTI TX
800 AM CDT FRI MAY 25 2018


TXZ229>244-251400-
...CORPUS CHRISTI AREA OBSERVATIONS...

CITY           SKY/WX    TMP DP  RH WIND       PRES   REMARKS
CORPUS CHRISTI MOSUNNY   77  76  96 S3        29.96R
NAS CORPUS CHR MOSUNNY   82  76  81 S7        29.95R
ROCKPORT       SUNNY     77  74  90 SW3       29.96R
KINGSVILLE ARP FAIR      76  76 100 CALM      29.97R
KINGSVILLE NAS MOSUNNY   76  75  97 SE3       29.96R FOG
ALICE          PTSUNNY   74  73  97 SE3       29.96R FOG
$$

...VICTORIA AREA OBSERVATIONS...

CITY           SKY/WX    TMP DP  RH WIND       PRES   REMARKS
PORT LAVACA    CLOUDY    75  73  95 CALM      29.97S
VICTORIA       FOG       74  73  97 NE3       29.97S VSB 1/4
BEEVILLE       FOG       74  74 100 CALM      29.97S VSB 1/2
PLEASANTON     CLOUDY    74  74 100 CALM      30.00R
SAN ANTONIO    PTSUNNY   76  70  82 S8        30.00S
$$

...LAREDO AREA OBSERVATIONS...

CITY           SKY/WX    TMP DP  RH WIND       PRES   REMARKS
LAREDO         SUNNY     78  73  84 SE10      29.97R
COTULLA        SUNNY     75  73  93 SE7       29.97R
DEL RIO        MOSUNNY   75  70  84 E9        29.97R
MCALLEN        SUNNY     78  76  93 SE3       29.96S
HEBBRONVILLE   CLOUDY    74  72  96 S6        29.98F FOG
$$

...OTHER TEXAS OBSERVATIONS...

CITY           SKY/WX    TMP DP  RH WIND       PRES   REMARKS
BROWNSVILLE    FAIR      78  77  96 SE5       29.95F
HOUSTON        FAIR      77  74  90 CALM      29.97S
COL. STATION   FOG       73  73 100 S7        29.99R VSB 1
AUSTIN         MOSUNNY   75  73  93 SW7       29.98F
WACO           MOSUNNY   75  71  87 S7        29.98R
FORT WORTH     MOSUNNY   78  71  79 SW10      29.96R
WICHITA FALLS  SUNNY     75  66  73 S12       29.94R
LUBBOCK        SUNNY     74  61  63 SW13      30.03S
EL PASO        MOSUNNY   65  49  56 SE5       30.08R
$$

...MARINE OBSERVATIONS...

STATION/POSITION TIME  SKY/WX   TEMP    WIND        PRES    VSBY  WAVE   SWELL
                                AIR SEA DIR/SP/G                  HT/PER HT/PER
                 (UTC)          (F)     (DEG/KT/KT) (MB)    (MI)  (FT/S) (FT/S)
PORT ARANSAS     1300            80 82  160/  7/  8 1014.1R
BUOY 90 E PORT A 1250            80 81  170/  6/  8 1014.5R         2/ 7   2/ 7
BUOY 200 E PT IS 1250            81 81  130/  4/  6 1014.5R         3/ 8   3/ 8
BUOY 15 E GALVES NOT AVBL
$$




USA.gov is the U.S. government's official web portal to all federal, state and local government web resources and services.